• In Hungary
  • List of Countries
  • For 7 days
  • Water Temperature
  • Satellite Maps
  • Weather Map
  • News
  • Weather Widgets
  • user-avatar
    Login

    Hourly Weather Katiola

    Today, 17 January, Wednesday

    Time Temperature Precipitation Wind Pressure Humidity
    00:00 +29°C° 0 mm 1 mps 732 mmHg 47%
    01:00 +28°C° 0 mm 1 mps 731 mmHg 52%
    02:00 +28°C° 0 mm 2 mps 731 mmHg 56%
    03:00 +27°C° 0 mm 2 mps 731 mmHg 60%
    04:00 +27°C° 0 mm 2 mps 731 mmHg 66%
    05:00 +26°C° 0 mm 2 mps 731 mmHg 71%
    06:00 +26°C° 0 mm 2 mps 731 mmHg 76%
    07:00 +27°C° 0 mm 2 mps 731 mmHg 72%
    08:00 +28°C° 0 mm 2 mps 732 mmHg 67%
    09:00 +29°C° 0 mm 2 mps 732 mmHg 63%
    10:00 +32°C° 0 mm 2 mps 732 mmHg 52%
    11:00 +36°C° 0 mm 1 mps 732 mmHg 41%
    12:00 +40°C° 0 mm 1 mps 732 mmHg 30%
    13:00 +39°C° 0 mm 1 mps 731 mmHg 30%
    14:00 +37°C° 0 mm 1 mps 730 mmHg 31%
    15:00 +36°C° 0 mm 1 mps 729 mmHg 31%
    16:00 +36°C° 0 mm 1 mps 729 mmHg 32%
    17:00 +35°C° 0 mm 1 mps 729 mmHg 33%
    18:00 +35°C° 0 mm 1 mps 729 mmHg 34%
    19:00 +34°C° 0 mm 1 mps 730 mmHg 37%
    20:00 +33°C° 0 mm 1 mps 730 mmHg 40%
    21:00 +32°C° 0 mm 1 mps 731 mmHg 43%
    22:00 +31°C° 0 mm 2 mps 731 mmHg 46%
    23:00 +30°C° 0 mm 2 mps 731 mmHg 49%

    Tomorrow, 18 January, Thursday

    Time Temperature Precipitation Wind Pressure Humidity
    00:00 +30°C° 0 mm 2 mps 731 mmHg 51%
    01:00 +29°C° 0 mm 2 mps 731 mmHg 57%
    02:00 +28°C° 0 mm 2 mps 730 mmHg 62%
    03:00 +27°C° 0 mm 1 mps 730 mmHg 67%
    04:00 +27°C° 0 mm 1 mps 730 mmHg 71%
    05:00 +26°C° 0 mm 1 mps 730 mmHg 75%
    06:00 +26°C° 0 mm 1 mps 730 mmHg 79%
    07:00 +27°C° 0 mm 1 mps 731 mmHg 73%
    08:00 +28°C° 0 mm 2 mps 732 mmHg 67%
    09:00 +30°C° 0 mm 2 mps 732 mmHg 62%
    10:00 +33°C° 0 mm 1 mps 732 mmHg 50%
    11:00 +37°C° 0 mm 1 mps 732 mmHg 39%
    12:00 +38°C° 0 mm 0 mps 732 mmHg 28%
    13:00 +41°C° 0 mm 1 mps 731 mmHg 25%
    14:00 +40°C° 0 mm 1 mps 730 mmHg 23%
    15:00 +40°C° 0 mm 1 mps 729 mmHg 21%
    16:00 +39°C° 0 mm 1 mps 729 mmHg 22%
    17:00 +39°C° 0 mm 1 mps 729 mmHg 22%
    18:00 +37°C° 0 mm 1 mps 729 mmHg 23%
    19:00 +35°C° 0 mm 1 mps 729 mmHg 26%
    20:00 +34°C° 0 mm 1 mps 730 mmHg 29%
    21:00 +32°C° 0 mm 1 mps 730 mmHg 32%
    22:00 +31°C° 0 mm 1 mps 731 mmHg 36%
    23:00 +31°C° 0 mm 1 mps 731 mmHg 40%

    Day after tomorrow, 19 January, Friday

    Time Temperature Precipitation Wind Pressure Humidity
    00:00 +30°C° 0 mm 1 mps 731 mmHg 43%
    01:00 +29°C° 0 mm 1 mps 730 mmHg 49%
    02:00 +28°C° 0 mm 1 mps 730 mmHg 54%
    03:00 +27°C° 0 mm 1 mps 730 mmHg 60%
    04:00 +27°C° 0 mm 1 mps 730 mmHg 65%
    05:00 +26°C° 0 mm 1 mps 730 mmHg 71%
    06:00 +26°C° 0 mm 1 mps 730 mmHg 77%
    07:00 +27°C° 0 mm 1 mps 731 mmHg 72%
    08:00 +28°C° 0 mm 2 mps 732 mmHg 68%
    09:00 +29°C° 0 mm 2 mps 732 mmHg 64%
    10:00 +32°C° 0 mm 2 mps 732 mmHg 53%
    11:00 +36°C° 0 mm 2 mps 732 mmHg 42%
    12:00 +37°C° 0 mm 1 mps 732 mmHg 31%
    13:00 +39°C° 0 mm 1 mps 731 mmHg 28%
    14:00 +40°C° 0 mm 1 mps 730 mmHg 25%
    15:00 +40°C° 0 mm 1 mps 729 mmHg 22%
    16:00 +39°C° 0 mm 2 mps 729 mmHg 23%
    17:00 +38°C° 0 mm 2 mps 729 mmHg 25%
    18:00 +37°C° 0 mm 2 mps 729 mmHg 26%
    19:00 +36°C° 0 mm 2 mps 729 mmHg 29%
    20:00 +35°C° 0 mm 2 mps 730 mmHg 33%
    21:00 +32°C° 0 mm 2 mps 731 mmHg 36%
    22:00 +32°C° 0 mm 2 mps 731 mmHg 39%
    23:00 +31°C° 0 mm 2 mps 731 mmHg 42%

    20 January, Saturday

    Time Temperature Precipitation Wind Pressure Humidity
    00:00 +30°C° 0 mm 2 mps 731 mmHg 46%
    01:00 +29°C° 0 mm 2 mps 730 mmHg 53%
    02:00 +28°C° 0 mm 2 mps 730 mmHg 60%
    03:00 +27°C° 0 mm 2 mps 730 mmHg 67%
    04:00 +27°C° 0 mm 1 mps 730 mmHg 72%
    05:00 +26°C° 0 mm 1 mps 730 mmHg 77%
    06:00 +25°C° 0 mm 1 mps 731 mmHg 81%
    07:00 +27°C° 0 mm 1 mps 731 mmHg 75%
    08:00 +28°C° 0 mm 1 mps 732 mmHg 69%
    09:00 +29°C° 0 mm 1 mps 732 mmHg 63%
    10:00 +33°C° 0 mm 1 mps 732 mmHg 52%
    11:00 +36°C° 0 mm 1 mps 732 mmHg 40%
    12:00 +37°C° 0 mm 0 mps 732 mmHg 29%
    13:00 +40°C° 0 mm 1 mps 731 mmHg 26%
    14:00 +40°C° 0 mm 1 mps 730 mmHg 23%
    15:00 +40°C° 0 mm 1 mps 729 mmHg 20%
    16:00 +39°C° 0 mm 1 mps 729 mmHg 21%
    17:00 +37°C° 0 mm 1 mps 729 mmHg 22%
    18:00 +37°C° 0 mm 2 mps 729 mmHg 22%
    19:00 +35°C° 0 mm 2 mps 730 mmHg 26%
    20:00 +33°C° 0 mm 1 mps 730 mmHg 29%
    21:00 +31°C° 0 mm 1 mps 731 mmHg 33%
    22:00 +30°C° 0 mm 1 mps 731 mmHg 37%
    23:00 +29°C° 0 mm 1 mps 731 mmHg 41%

    21 January, Sunday

    Time Temperature Precipitation Wind Pressure Humidity
    00:00 +29°C° 0 mm 1 mps 731 mmHg 46%
    01:00 +28°C° 0 mm 1 mps 730 mmHg 48%
    02:00 +27°C° 0 mm 1 mps 730 mmHg 51%
    03:00 +27°C° 0 mm 1 mps 730 mmHg 54%
    04:00 +26°C° 0 mm 1 mps 730 mmHg 56%
    05:00 +26°C° 0 mm 1 mps 730 mmHg 58%
    06:00 +23°C° 0 mm 0 mps 731 mmHg 60%
    07:00 +27°C° 0 mm 1 mps 731 mmHg 55%
    08:00 +28°C° 0 mm 1 mps 732 mmHg 51%
    09:00 +30°C° 0 mm 1 mps 733 mmHg 46%
    10:00 +33°C° 0 mm 1 mps 732 mmHg 36%
    11:00 +35°C° 0 mm 1 mps 732 mmHg 27%
    12:00 +39°C° 0 mm 2 mps 732 mmHg 18%
    13:00 +39°C° 0 mm 2 mps 731 mmHg 15%
    14:00 +39°C° 0 mm 2 mps 730 mmHg 13%
    15:00 +40°C° 0 mm 3 mps 729 mmHg 11%
    16:00 +39°C° 0 mm 2 mps 729 mmHg 11%
    17:00 +38°C° 0 mm 2 mps 729 mmHg 11%
    18:00 +35°C° 0 mm 1 mps 729 mmHg 11%
    19:00 +34°C° 0 mm 1 mps 729 mmHg 12%
    20:00 +32°C° 0 mm 1 mps 730 mmHg 13%
    21:00 +30°C° 0 mm 1 mps 730 mmHg 14%
    22:00 +29°C° 0 mm 1 mps 730 mmHg 17%
    23:00 +28°C° 0 mm 1 mps 730 mmHg 19%

    22 January, Monday

    Time Temperature Precipitation Wind Pressure Humidity
    00:00 +25°C° 0 mm 0 mps 730 mmHg 21%
    01:00 +27°C° 0 mm 1 mps 730 mmHg 21%
    02:00 +26°C° 0 mm 1 mps 730 mmHg 20%
    03:00 +26°C° 0 mm 1 mps 730 mmHg 19%
    04:00 +25°C° 0 mm 1 mps 730 mmHg 19%
    05:00 +24°C° 0 mm 1 mps 730 mmHg 19%
    06:00 +24°C° 0 mm 1 mps 731 mmHg 19%
    07:00 +26°C° 0 mm 1 mps 731 mmHg 18%
    08:00 +28°C° 0 mm 1 mps 732 mmHg 16%
    09:00 +30°C° 0 mm 1 mps 732 mmHg 14%
    10:00 +32°C° 0 mm 2 mps 732 mmHg 12%
    11:00 +35°C° 0 mm 2 mps 731 mmHg 9%
    12:00 +37°C° 0 mm 3 mps 731 mmHg 6%
    13:00 +38°C° 0 mm 3 mps 730 mmHg 6%
    14:00 +39°C° 0 mm 3 mps 729 mmHg 5%
    15:00 +40°C° 0 mm 2 mps 729 mmHg 5%
    16:00 +38°C° 0 mm 2 mps 729 mmHg 5%
    17:00 +37°C° 0 mm 2 mps 729 mmHg 6%
    18:00 +35°C° 0 mm 1 mps 729 mmHg 7%
    19:00 +33°C° 0 mm 1 mps 729 mmHg 7%
    20:00 +31°C° 0 mm 1 mps 730 mmHg 8%
    21:00 +29°C° 0 mm 1 mps 730 mmHg 9%
    22:00 +28°C° 0 mm 1 mps 730 mmHg 10%
    23:00 +28°C° 0 mm 1 mps 730 mmHg 10%
    Show more